Location: Unspecified
(0.0000°N, 0.0000°E)
Time: 02:20:54
(UTC+00:00)

Oscar 18 - Pass Details

Date: 14 June 2023
Orbit: 773 x 788 km, 98.9° (Epoch: 01 October)

Event Time Altitude Azimuth Distance (km) Brightness Sun altitude
Rises 05:03:26 0° 348° (NNW) 3,238 14.0 -13.0°
Reaches altitude 10° 05:06:09 10° 334° (NNW) 2,312 13.1 -12.4°
Maximum altitude 05:10:06 23° 283° (WNW) 1,597 11.8 -11.5°
Enters shadow 05:13:13 14° 239° (WSW) 2,071 12.2 -10.8°
